Regional Weather Roundup
Issued by NWS Jackson, KY

Home | Current Version | Previous Version | Graphics & Text | Print | Product List | Glossary On
Versions: 1 2 3 4 5 6 7 8 9 10 11 12 13 14 15 16 17 18 19 20 21 22 23 24 25 26 27 28 29 30 31 32 33 34 35 36 37 38 39 40 41 42 43 44 45 46 47 48 49 50
000
ASUS43 KJKL 220411
RWRJKL

EAST KENTUCKY HOURLY WEATHER ROUNDUP
NATIONAL WEATHER SERVICE JACKSON KY
1200 AM EDT TUE JUL 22 2014

NOTE: "FAIR" INDICATES FEW OR NO CLOUDS BELOW 12,000 FEET WITH
NO SIGNIFICANT WEATHER AND/OR OBSTRUCTIONS TO VISIBILITY.

* THESE REPORTS ARE NOT UNDER NWS QUALITY CONTROL AND MAY NOT
  REPORT WEATHER SUCH AS PRECIPITATION AND FOG.

KYZ079-080-083-085-087-088-110-112-115-119-120-220500
...EASTERN KENTUCKY...

CITY           SKY/WX    TMP DP  RH WIND       PRES   REMARKS
JACKSON        PTCLDY    76  68  76 CALM      30.13S
LONDON         MOCLDY    75  70  84 CALM      30.11S
SOMERSET*      CLEAR     73  72  94 CALM      30.10S
MONTICELLO*    PTCLDY    71  69  93 CALM      30.11S FOG
WILLIAMSBURG*    N/A     73  73 100 CALM      30.10F
MIDDLESBORO*   MOCLDY    73  70  91 CALM      30.13S
HARLAN APT*    CLOUDY    70  70 100 MISG      30.15S
HAZARD APT*    PTCLDY    73  72  94 CALM      30.13R
BLACK MTN*       N/A     64  64 100 SW2         N/A
PIKEVILLE APT* CLEAR     75  66  73 S3        30.14S
BIG SANDY*     MOCLDY    74  71  88 CALM      30.13S
MOREHEAD APT*    N/A     75  70  83 CALM      30.13S
$$

KYZ035-036-041-042-044-050-067-078-099-220500
...CENTRAL KENTUCKY...

CITY           SKY/WX    TMP DP  RH WIND       PRES   REMARKS
MT STERLING*   CLEAR     72  70  94 CALM      30.13R
FLEMING/MASON* CLEAR     73  70  88 E3        30.12S
DANVILLE*      PTCLDY    72  68  88 CALM      30.11F
RICHMOND*      CLEAR     73  68  83 CALM      30.10S
LEXINGTON      CLEAR     77  67  71 CALM      30.11S
FRANKFORT      CLEAR     71  67  87 CALM      30.09S
$$

KYZ091>093-OHZ055-061-077-WVZ005-015-034-035-042-220500
...SOUTHERN OHIO/WEST VIRGINIA...

CITY           SKY/WX    TMP DP  RH WIND       PRES   REMARKS
COVINGTON      PTCLDY    77  65  66 E5        30.11S
COLUMBUS       CLEAR     76  67  73 E6        30.11S
DAYTON         CLEAR     73  65  75 NE5       30.13F
WILMINGTON     CLEAR     68  65  90 CALM      30.13S
HUNTINGTON     CLEAR     73  72  96 CALM      30.10S
CHARLESTON     CLEAR     72  72 100 CALM      30.12R
PINEVILLE*     MOCLDY    71  70  97 MISG      30.23S
BECKLEY        CLOUDY    70  64  81 SE6       30.23R
BLUEFIELD      MOCLDY    71  63  75 S6        30.24F
$$

VAZ002-007-008-TNZ017-027-036-066-071-220500
...SOUTHWEST VIRGINIA/EAST TENNESSEE...

CITY           SKY/WX    TMP DP  RH WIND       PRES   REMARKS
WISE*          MOCLDY    70  63  78 S5        30.22S
JONESVILLE*      N/A     73  72  94 CALM      30.16S
ABINGDON*      PTCLDY    71  66  84 E6        30.18F
BRISTOL        PTCLDY    70  65  84 N3        30.15F
KNOXVILLE      CLOUDY    75  70  84 NW5       30.09S
OAK RIDGE      PTCLDY    77  72  84 CALM      30.11S
CROSSVILLE     PTCLDY    72  67  84 CALM      30.15S
NASHVILLE      PTCLDY    77  72  84 CALM      30.07S
$$

...KEY TO REMARKS...
VSB - VISIBILITY IN MILES
WCI - WIND CHILL INDEX
HX  - HEAT INDEX

$$



USA.gov is the U.S. government's official web portal to all federal, state and local government web resources and services.